Wind_Speed
18 18 19 19 19 19 19 18 18 17 18 18 18 17 18 19 19 19 19 20 20 20 20 20 21 22 21 22 23 23 24 25 26 27 27 28 28 28
18 18 18 19 20 19 19 19 19 18 18 18 18 18 18 19 18 17 17 18 18 19 19 19 20 20 21 21 22 23 23 24 26 27 27 28 28 28
16 16 17 18 19 19 19 19 18 18 17 17 18 18 18 18 17 17 17 17 17 18 18 19 19 21 22 22 22 23 24 25 26 26 27 28 28 29
16 16 16 17 17 18 18 18 18 18 17 17 17 16 16 17 17 18 17 17 17 17 17 18 18 19 21 22 23 24 25 26 26 27 28 28 28 29
15 15 15 16 16 16 16 17 17 17 17 17 17 17 17 17 17 18 18 18 18 19 18 19 20 21 21 22 23 24 25 26 27 28 28 29 29 29
15 14 14 15 15 15 15 16 17 17 17 17 17 17 17 18 18 18 19 19 18 18 19 20 20 22 22 23 23 24 25 26 26 27 28 28 28 28
15 14 13 14 14 14 15 16 16 16 17 17 17 17 17 18 18 18 19 19 19 19 20 20 21 22 23 23 23 23 24 25 26 27 28 28 28 28
14 13 13 13 14 15 16 16 16 16 17 17 18 17 17 18 18 18 18 18 19 20 21 21 22 23 23 24 24 24 24 24 26 26 27 27 27 27
13 13 13 13 14 15 15 15 15 16 16 16 16 15 16 16 17 17 18 18 19 20 21 21 22 23 24 24 24 24 24 24 25 25 25 26 26 27
12 13 14 15 15 16 15 15 15 15 16 16 16 16 16 16 16 17 17 18 19 20 21 22 22 23 24 25 25 24 24 25 25 25 25 26 26 26
13 13 15 15 16 16 16 15 15 15 15 15 16 16 17 17 17 18 18 18 18 19 20 21 23 24 24 24 24 24 25 25 25 26 26 26 26 26
14 14 14 15 16 17 17 16 16 16 16 16 16 17 17 17 17 18 18 19 19 20 21 21 22 22 23 23 24 24 25 25 25 25 25 25 26 27
14 13 14 14 14 15 16 17 17 17 17 17 17 18 18 18 18 19 20 20 20 20 21 21 22 22 22 23 25 25 25 25 25 25 25 25 26 27
14 14 15 15 15 15 16 17 17 18 18 18 18 18 18 19 19 19 20 20 21 22 22 22 22 23 23 24 24 25 26 25 25 25 24 25 26 26
15 14 15 15 15 16 16 16 17 17 18 19 19 19 19 19 20 20 21 21 22 22 23 23 24 24 25 25 25 25 25 25 25 24 24 25 26 26
15 15 16 16 16 16 17 17 17 17 18 18 19 19 19 19 20 21 21 22 22 23 24 24 25 25 25 24 24 24 24 24 25 25 25 26 27 26
15 16 16 17 17 17 17 17 17 17 18 18 19 19 19 19 20 20 21 22 23 23 24 24 25 25 25 25 24 24 24 24 25 26 26 26 26 26
14 14 15 16 16 16 16 16 16 17 17 17 18 18 19 20 20 21 22 22 23 24 24 25 25 26 26 26 26 25 25 26 26 27 27 27 27 27
15 15 15 15 15 15 15 15 16 17 17 17 17 18 19 19 20 21 22 23 23 24 25 25 25 25 25 25 25 26 26 26 27 27 28 28 28 28
17 17 16 16 15 15 15 15 16 16 16 16 17 18 19 20 21 21 22 23 24 24 25 26 26 25 25 25 25 26 27 28 28 28 28 28 28 28
17 16 16 16 17 17 17 16 17 17 17 17 18 19 20 21 22 22 23 23 24 25 25 26 26 26 26 26 27 27 27 28 28 28 28 27 28 28
17 17 17 17 18 18 19 19 18 18 18 19 19 20 21 21 22 23 24 24 25 26 26 25 25 26 27 27 27 27 27 27 28 28 27 27 27 26
18 18 18 19 19 20 20 20 20 20 20 20 21 22 22 23 24 25 26 26 27 26 26 26 26 26 26 26 27 27 27 27 26 26 26 26 26 26
Wind_Direction
264 259 257 256 256 255 255 255 255 257 255 256 257 257 259 260 258 258 261 263 264 266 265 262 262 260 261 265 266 267 267 267 267 268 269 271 273 273
267 259 257 255 254 255 256 255 255 257 257 256 257 258 259 260 261 261 263 267 268 267 264 263 264 264 265 269 270 270 271 270 268 268 270 272 273 275
267 262 258 258 255 254 255 256 256 258 259 257 256 258 259 257 257 261 265 264 265 266 267 266 265 266 265 271 272 271 271 270 271 273 273 274 275 276
265 263 258 255 254 255 253 252 255 256 255 256 256 257 257 256 259 262 264 262 265 266 267 267 268 270 273 274 273 274 274 272 272 274 274 276 275 276
265 262 258 255 252 252 253 252 251 252 254 256 256 257 257 260 261 264 265 264 264 266 267 269 271 272 274 274 273 272 272 272 273 274 275 277 276 276
262 259 258 254 251 251 252 252 249 247 251 253 256 256 257 262 263 264 264 263 264 266 268 271 273 273 274 276 275 275 275 274 274 276 277 277 276 275
262 259 255 254 250 248 249 249 250 250 251 254 255 256 258 261 262 264 264 265 266 268 271 273 276 276 277 279 279 277 277 275 274 277 277 277 277 277
260 258 255 256 255 250 248 248 250 253 253 254 256 255 259 263 264 264 266 266 267 271 274 277 279 279 279 278 279 278 276 277 277 279 279 281 282 281
263 258 256 255 253 251 250 250 251 252 252 253 255 256 259 264 266 265 267 269 270 272 275 277 278 279 280 280 280 279 278 279 282 283 285 285 285 283
269 260 255 253 253 251 251 253 254 255 255 255 256 257 258 263 264 267 268 270 272 273 276 278 279 279 280 281 280 278 279 282 284 284 284 285 284 282
273 267 260 256 255 254 255 255 256 256 257 256 256 259 262 263 265 267 268 270 274 277 280 281 281 282 283 282 281 279 280 281 280 281 284 285 286 284
274 270 264 259 257 255 255 254 256 259 261 260 260 262 264 266 269 271 272 272 274 278 282 285 285 284 283 283 283 283 284 284 282 283 284 285 284 284
274 268 265 262 259 258 256 256 257 258 261 261 261 263 266 269 271 271 272 273 275 279 282 284 285 285 285 285 285 286 286 286 284 284 284 285 286 286
274 269 266 262 261 264 263 262 262 263 265 264 264 264 267 270 272 273 275 276 277 278 280 282 284 285 286 286 286 287 286 284 284 284 285 286 288 288
273 269 266 262 262 265 265 264 267 269 267 264 264 266 269 271 273 276 277 278 279 280 282 283 284 285 285 285 285 285 285 284 284 284 286 288 289 289
272 270 269 266 264 265 265 266 268 270 269 266 266 267 271 274 277 277 279 282 283 283 284 284 284 285 286 286 286 286 285 285 285 285 285 288 289 290
274 271 269 267 264 266 269 269 271 272 272 271 271 271 273 277 280 281 283 284 284 284 285 285 285 286 288 287 287 287 286 287 288 288 288 288 289 290
275 273 269 267 267 267 268 269 272 272 271 270 272 275 277 279 282 284 284 286 287 287 287 287 286 287 288 288 288 287 288 289 290 290 290 289 290 291
275 274 270 267 268 269 268 271 272 272 274 274 274 276 277 279 283 284 286 286 287 288 288 287 286 285 285 286 287 288 288 289 290 290 290 290 291 292
273 276 275 270 269 270 270 272 272 272 274 275 277 279 281 281 283 286 287 287 288 288 288 288 287 286 286 286 286 287 288 289 290 291 291 290 290 291
273 274 275 274 271 270 271 272 272 273 275 276 279 283 285 285 286 287 287 288 290 289 290 289 287 286 288 288 288 289 289 289 290 292 293 292 291 291
275 275 276 275 272 271 273 273 272 273 275 278 281 284 286 287 287 288 289 290 291 292 292 290 287 287 288 289 290 291 291 290 291 293 293 293 294 293
276 275 274 276 276 274 274 274 274 275 277 279 282 284 286 287 287 288 289 290 291 291 290 289 288 288 288 289 290 291 291 291 291 292 294 294 294 293
Height
5800 5800 5801 5801 5802 5803 5804 5805 5806 5807 5807 5807 5808 5808 5808 5809 5809 5810 5810 5810 5810 5810 5810 5810 5810 5810 5810 5810 5809 5809 5809 5808 5808 5807 5806 5806 5805 5804
5793 5793 5794 5795 5796 5797 5798 5799 5800 5801 5802 5802 5802 5803 5803 5803 5804 5804 5804 5804 5804 5804 5804 5804 5804 5804 5803 5803 5803 5803 5802 5801 5801 5800 5799 5798 5798 5796
5787 5788 5788 5789 5790 5791 5792 5794 5794 5795 5796 5797 5797 5797 5798 5798 5798 5799 5799 5799 5798 5798 5798 5798 5798 5798 5797 5797 5796 5796 5795 5794 5793 5792 5792 5791 5790 5788
5783 5782 5783 5783 5784 5786 5787 5788 5789 5790 5791 5791 5792 5792 5793 5793 5794 5794 5793 5793 5793 5792 5792 5792 5792 5791 5791 5790 5790 5789 5788 5787 5786 5785 5784 5783 5782 5780
5778 5778 5778 5778 5779 5781 5781 5783 5784 5785 5785 5786 5787 5787 5788 5788 5788 5788 5788 5788 5787 5787 5787 5787 5786 5786 5785 5784 5783 5782 5781 5780 5779 5778 5776 5775 5773 5772
5773 5773 5773 5774 5775 5776 5777 5778 5778 5779 5780 5781 5782 5782 5783 5783 5783 5783 5783 5782 5782 5782 5781 5781 5781 5780 5779 5778 5776 5775 5774 5772 5771 5770 5768 5767 5765 5764
5769 5769 5769 5770 5770 5771 5772 5773 5774 5774 5775 5776 5776 5777 5778 5778 5778 5778 5778 5778 5777 5776 5776 5776 5774 5773 5772 5771 5769 5768 5766 5765 5764 5762 5761 5759 5758 5756
5765 5765 5765 5766 5766 5767 5768 5768 5769 5769 5770 5770 5771 5772 5772 5772 5772 5773 5773 5772 5772 5772 5770 5769 5768 5767 5765 5764 5763 5761 5760 5758 5756 5755 5753 5752 5750 5748
5761 5761 5761 5762 5762 5763 5763 5764 5765 5765 5765 5766 5766 5767 5767 5768 5768 5768 5767 5767 5766 5765 5765 5763 5762 5761 5759 5757 5756 5754 5753 5751 5750 5748 5746 5744 5742 5740
5757 5757 5757 5758 5758 5759 5759 5760 5760 5761 5761 5761 5761 5762 5763 5763 5762 5763 5762 5762 5761 5759 5758 5757 5756 5754 5752 5750 5748 5747 5745 5744 5742 5741 5739 5737 5735 5733
5753 5753 5753 5754 5754 5755 5755 5756 5756 5756 5756 5756 5757 5757 5757 5757 5757 5757 5757 5756 5755 5754 5752 5751 5749 5747 5745 5744 5742 5740 5739 5737 5736 5734 5732 5730 5728 5726
5749 5749 5749 5749 5749 5750 5750 5751 5752 5752 5752 5752 5752 5752 5752 5752 5752 5751 5751 5750 5749 5748 5746 5745 5743 5741 5739 5737 5735 5734 5732 5730 5729 5727 5725 5723 5721 5718
5745 5745 5745 5745 5745 5745 5745 5746 5747 5747 5747 5747 5747 5747 5747 5747 5747 5746 5745 5745 5744 5743 5741 5739 5737 5734 5733 5731 5729 5727 5726 5724 5722 5720 5717 5715 5713 5711
5741 5740 5740 5740 5740 5740 5740 5741 5741 5741 5741 5741 5742 5742 5742 5742 5742 5741 5740 5738 5737 5736 5734 5733 5731 5729 5727 5725 5723 5721 5719 5717 5715 5713 5711 5708 5705 5703
5736 5736 5735 5735 5735 5735 5735 5735 5735 5735 5736 5736 5736 5736 5736 5736 5736 5735 5734 5732 5731 5729 5728 5726 5725 5723 5720 5718 5716 5714 5712 5710 5707 5706 5704 5701 5698 5695
5731 5731 5730 5730 5730 5730 5730 5730 5730 5730 5730 5731 5731 5731 5730 5730 5729 5728 5727 5726 5725 5723 5721 5719 5717 5715 5713 5711 5709 5707 5704 5703 5701 5698 5696 5694 5691 5688
5726 5725 5725 5725 5725 5725 5725 5725 5725 5725 5725 5725 5725 5725 5724 5724 5723 5722 5721 5719 5718 5716 5714 5712 5710 5708 5706 5704 5702 5699 5697 5695 5693 5691 5688 5686 5683 5680
5721 5720 5720 5720 5720 5720 5720 5720 5720 5720 5720 5720 5720 5719 5719 5718 5717 5716 5714 5713 5711 5709 5707 5705 5702 5700 5699 5696 5694 5692 5690 5688 5686 5683 5680 5678 5676 5673
5716 5715 5715 5715 5715 5715 5715 5715 5715 5715 5714 5714 5713 5713 5712 5712 5711 5709 5708 5706 5704 5702 5700 5697 5695 5693 5691 5689 5687 5684 5682 5680 5678 5675 5673 5670 5668 5665
5711 5711 5710 5710 5710 5709 5709 5709 5709 5709 5708 5708 5707 5707 5706 5704 5703 5702 5700 5699 5697 5695 5692 5689 5687 5685 5683 5682 5679 5677 5674 5672 5670 5667 5664 5661 5659 5656
5706 5705 5705 5704 5704 5704 5704 5704 5703 5703 5703 5702 5701 5700 5699 5698 5696 5695 5693 5691 5689 5687 5684 5682 5679 5677 5675 5673 5671 5668 5666 5663 5661 5659 5656 5653 5650 5648
5700 5700 5699 5699 5699 5698 5698 5698 5697 5697 5697 5696 5695 5694 5692 5691 5689 5687 5686 5684 5682 5679 5677 5674 5671 5669 5667 5665 5662 5660 5658 5656 5653 5650 5647 5645 5642 5640
5695 5694 5694 5693 5693 5692 5692 5691 5691 5691 5690 5689 5688 5687 5685 5683 5682 5680 5678 5676 5674 5671 5669 5666 5664 5661 5659 5657 5654 5652 5650 5648 5645 5643 5640 5637 5634 5632